• In Netherlands
  • List of Countries
  • For 7 days
  • Water Temperature
  • Satellite Maps
  • Weather Map
  • Weather Widgets
  • user-avatar
    Login

    Hourly Weather Oran

    Today, 17 August, Thursday

    Time Temperature Precipitation Wind Pressure Humidity
    00:00 +30°C° 0 mm 1 mps 753 mmHg 69%
    01:00 +29°C° 0 mm 2 mps 753 mmHg 72%
    02:00 +29°C° 0 mm 2 mps 753 mmHg 74%
    03:00 +28°C° 0 mm 2 mps 753 mmHg 77%
    04:00 +28°C° 0 mm 2 mps 753 mmHg 78%
    05:00 +28°C° 0 mm 2 mps 753 mmHg 79%
    06:00 +28°C° 0 mm 2 mps 753 mmHg 80%
    07:00 +29°C° 0 mm 2 mps 753 mmHg 72%
    08:00 +30°C° 0 mm 2 mps 753 mmHg 64%
    09:00 +32°C° 0 mm 2 mps 754 mmHg 56%
    10:00 +34°C° 0 mm 3 mps 753 mmHg 51%
    11:00 +35°C° 0 mm 3 mps 753 mmHg 45%
    12:00 +37°C° 0 mm 4 mps 753 mmHg 40%
    13:00 +37°C° 0 mm 4 mps 753 mmHg 40%
    14:00 +37°C° 0 mm 5 mps 752 mmHg 40%
    15:00 +37°C° 0 mm 5 mps 752 mmHg 40%
    16:00 +36°C° 0 mm 5 mps 752 mmHg 43%
    17:00 +36°C° 0 mm 5 mps 752 mmHg 45%
    18:00 +35°C° 0 mm 5 mps 752 mmHg 47%
    19:00 +34°C° 0 mm 4 mps 752 mmHg 51%
    20:00 +33°C° 0 mm 4 mps 752 mmHg 54%
    21:00 +31°C° 0 mm 3 mps 753 mmHg 58%
    22:00 +31°C° 0 mm 3 mps 752 mmHg 60%
    23:00 +30°C° 0 mm 3 mps 752 mmHg 62%

    Tomorrow, 18 August, Friday

    Time Temperature Precipitation Wind Pressure Humidity
    00:00 +30°C° 0 mm 2 mps 752 mmHg 63%
    01:00 +29°C° 0 mm 2 mps 752 mmHg 67%
    02:00 +29°C° 0 mm 2 mps 752 mmHg 70%
    03:00 +28°C° 0 mm 2 mps 752 mmHg 73%
    04:00 +28°C° 0 mm 2 mps 752 mmHg 74%
    05:00 +28°C° 0 mm 2 mps 752 mmHg 76%
    06:00 +28°C° 0 mm 2 mps 752 mmHg 77%
    07:00 +29°C° 0 mm 2 mps 752 mmHg 69%
    08:00 +30°C° 0 mm 2 mps 752 mmHg 61%
    09:00 +32°C° 0 mm 1 mps 752 mmHg 53%
    10:00 +34°C° 0 mm 2 mps 752 mmHg 48%
    11:00 +36°C° 0 mm 3 mps 752 mmHg 42%
    12:00 +37°C° 0 mm 3 mps 752 mmHg 36%
    13:00 +37°C° 0 mm 4 mps 751 mmHg 37%
    14:00 +37°C° 0 mm 4 mps 751 mmHg 38%
    15:00 +37°C° 0 mm 4 mps 751 mmHg 39%
    16:00 +37°C° 0 mm 4 mps 751 mmHg 40%
    17:00 +36°C° 0 mm 3 mps 750 mmHg 41%
    18:00 +35°C° 0 mm 3 mps 750 mmHg 43%
    19:00 +35°C° 0 mm 3 mps 751 mmHg 46%
    20:00 +34°C° 0 mm 3 mps 751 mmHg 50%
    21:00 +33°C° 0 mm 3 mps 752 mmHg 54%
    22:00 +31°C° 0 mm 2 mps 751 mmHg 55%
    23:00 +31°C° 0 mm 1 mps 751 mmHg 56%

    Day after tomorrow, 19 August, Saturday

    Time Temperature Precipitation Wind Pressure Humidity
    00:00 +31°C° 0 mm 1 mps 751 mmHg 57%
    01:00 +30°C° 0 mm 1 mps 751 mmHg 59%
    02:00 +29°C° 0 mm 1 mps 751 mmHg 61%
    03:00 +29°C° 0 mm 2 mps 751 mmHg 63%
    04:00 +29°C° 0 mm 2 mps 751 mmHg 65%
    05:00 +28°C° 0 mm 2 mps 751 mmHg 66%
    06:00 +28°C° 0 mm 2 mps 751 mmHg 68%
    07:00 +30°C° 0 mm 3 mps 751 mmHg 59%
    08:00 +33°C° 0 mm 3 mps 752 mmHg 50%
    09:00 +34°C° 0 mm 4 mps 752 mmHg 40%
    10:00 +36°C° 0 mm 4 mps 752 mmHg 36%
    11:00 +37°C° 0 mm 4 mps 752 mmHg 32%
    12:00 +40°C° 0 mm 5 mps 752 mmHg 28%
    13:00 +40°C° 0 mm 5 mps 752 mmHg 30%
    14:00 +40°C° 0 mm 6 mps 751 mmHg 31%
    15:00 +40°C° 0 mm 7 mps 751 mmHg 32%
    16:00 +39°C° 0 mm 7 mps 751 mmHg 36%
    17:00 +38°C° 0 mm 7 mps 751 mmHg 39%
    18:00 +36°C° 0 mm 7 mps 751 mmHg 43%
    19:00 +35°C° 0 mm 7 mps 752 mmHg 47%
    20:00 +34°C° 0 mm 6 mps 752 mmHg 51%
    21:00 +33°C° 0 mm 6 mps 753 mmHg 55%
    22:00 +32°C° 0 mm 6 mps 753 mmHg 57%
    23:00 +32°C° 0 mm 5 mps 753 mmHg 59%

    20 August, Sunday

    Time Temperature Precipitation Wind Pressure Humidity
    00:00 +30°C° 0 mm 5 mps 753 mmHg 61%
    01:00 +30°C° 0 mm 5 mps 752 mmHg 64%
    02:00 +29°C° 0 mm 5 mps 752 mmHg 67%
    03:00 +29°C° 0 mm 5 mps 752 mmHg 71%
    04:00 +28°C° 0 mm 5 mps 752 mmHg 72%
    05:00 +28°C° 0 mm 5 mps 753 mmHg 74%
    06:00 +28°C° 0 mm 5 mps 753 mmHg 76%
    07:00 +29°C° 0 mm 4 mps 753 mmHg 69%
    08:00 +30°C° 0 mm 4 mps 753 mmHg 63%
    09:00 +33°C° 0 mm 4 mps 754 mmHg 56%
    10:00 +34°C° 0 mm 5 mps 753 mmHg 51%
    11:00 +35°C° 0 mm 5 mps 753 mmHg 45%
    12:00 +38°C° 0 mm 6 mps 753 mmHg 40%
    13:00 +38°C° 0 mm 6 mps 753 mmHg 39%
    14:00 +39°C° 0 mm 7 mps 752 mmHg 38%
    15:00 +39°C° 0 mm 7 mps 752 mmHg 37%
    16:00 +39°C° 0 mm 7 mps 752 mmHg 39%
    17:00 +38°C° 0 mm 7 mps 752 mmHg 41%
    18:00 +36°C° 0 mm 7 mps 752 mmHg 43%
    19:00 +35°C° 0 mm 6 mps 752 mmHg 46%
    20:00 +34°C° 0 mm 6 mps 752 mmHg 49%
    21:00 +33°C° 0 mm 5 mps 753 mmHg 52%
    22:00 +32°C° 0 mm 5 mps 753 mmHg 55%
    23:00 +32°C° 0 mm 4 mps 753 mmHg 58%

    21 August, Monday

    Time Temperature Precipitation Wind Pressure Humidity
    00:00 +30°C° 0 mm 4 mps 753 mmHg 60%
    01:00 +30°C° 0 mm 4 mps 753 mmHg 63%
    02:00 +29°C° 0 mm 4 mps 752 mmHg 66%
    03:00 +28°C° 0 mm 3 mps 752 mmHg 70%
    04:00 +28°C° 0 mm 3 mps 752 mmHg 71%
    05:00 +28°C° 0 mm 3 mps 753 mmHg 73%
    06:00 +27°C° 0 mm 3 mps 753 mmHg 75%
    07:00 +29°C° 0 mm 3 mps 753 mmHg 69%
    08:00 +30°C° 0 mm 3 mps 753 mmHg 63%
    09:00 +31°C° 0 mm 3 mps 753 mmHg 57%
    10:00 +33°C° 0 mm 3 mps 753 mmHg 51%
    11:00 +35°C° 0 mm 4 mps 753 mmHg 45%
    12:00 +36°C° 0 mm 5 mps 753 mmHg 39%
    13:00 +37°C° 0 mm 5 mps 752 mmHg 38%
    14:00 +37°C° 0 mm 5 mps 752 mmHg 36%
    15:00 +39°C° 0 mm 6 mps 752 mmHg 35%
    16:00 +38°C° 0 mm 6 mps 752 mmHg 35%
    17:00 +36°C° 0 mm 5 mps 752 mmHg 36%
    18:00 +35°C° 0 mm 5 mps 751 mmHg 36%
    19:00 +34°C° 0 mm 5 mps 752 mmHg 38%
    20:00 +34°C° 0 mm 4 mps 752 mmHg 40%
    21:00 +33°C° 0 mm 3 mps 752 mmHg 42%
    22:00 +31°C° 0 mm 3 mps 752 mmHg 44%
    23:00 +31°C° 0 mm 3 mps 752 mmHg 46%

    22 August, Tuesday

    Time Temperature Precipitation Wind Pressure Humidity
    00:00 +30°C° 0 mm 3 mps 752 mmHg 48%
    01:00 +29°C° 0 mm 3 mps 752 mmHg 51%
    02:00 +29°C° 0 mm 2 mps 751 mmHg 54%
    03:00 +28°C° 0 mm 2 mps 751 mmHg 56%
    04:00 +28°C° 0 mm 2 mps 751 mmHg 57%
    05:00 +28°C° 0 mm 2 mps 752 mmHg 58%
    06:00 +28°C° 0 mm 1 mps 752 mmHg 59%
    07:00 +29°C° 0 mm 2 mps 752 mmHg 52%
    08:00 +31°C° 0 mm 2 mps 752 mmHg 45%
    09:00 +32°C° 0 mm 2 mps 752 mmHg 38%
    10:00 +35°C° 0 mm 3 mps 752 mmHg 33%
    11:00 +36°C° 0 mm 4 mps 751 mmHg 29%
    12:00 +38°C° 0 mm 4 mps 751 mmHg 24%
    13:00 +39°C° 0 mm 5 mps 751 mmHg 24%
    14:00 +39°C° 0 mm 5 mps 751 mmHg 23%
    15:00 +40°C° 0 mm 5 mps 750 mmHg 22%
    16:00 +39°C° 0 mm 5 mps 750 mmHg 24%
    17:00 +37°C° 0 mm 5 mps 750 mmHg 25%
    18:00 +36°C° 0 mm 5 mps 750 mmHg 27%
    19:00 +35°C° 0 mm 4 mps 750 mmHg 30%
    20:00 +34°C° 0 mm 4 mps 751 mmHg 32%
    21:00 +34°C° 0 mm 4 mps 751 mmHg 35%
    22:00 +33°C° 0 mm 3 mps 751 mmHg 36%
    23:00 +33°C° 0 mm 3 mps 751 mmHg 37%
    Show more